Location: Vancouver
(49.2500°N, 123.1330°W)
Time: 00:33:43
(UTC-08:00)

Cosmos 2333 Rocket - Visible Passes

Search period start: 21 January 2017 00:00
Search period end: 31 January 2017 00:00
Orbit: 842 x 860 km, 70.8° (Epoch: 20 January)

Date Brightness Start Highest point End Pass type
(mag) Time Alt. Az. Time Alt. Az. Time Alt. Az.
21 Jan 2.7 17:27:53 10° S 17:33:10 42° ESE 17:38:27 10° NE visible
21 Jan 3.4 19:12:12 10° WSW 19:17:29 39° NW 19:21:55 14° NNE visible
21 Jan 4.8 21:01:07 10° NW 21:03:28 12° NNW 21:03:56 12° NNW visible
22 Jan 3.4 18:59:54 10° WSW 19:05:11 39° NW 19:10:15 11° NNE visible
22 Jan 4.7 20:48:49 10° NW 20:51:10 12° NNW 20:52:17 12° NNW visible
23 Jan 3.4 18:47:36 10° WSW 18:52:53 39° NW 18:58:13 10° NNE visible
23 Jan 4.7 20:36:31 10° NW 20:38:52 12° NNW 20:40:35 11° N visible
24 Jan 3.4 18:35:18 10° WSW 18:40:35 39° NW 18:45:55 10° NNE visible
24 Jan 4.7 20:24:13 10° NW 20:26:34 12° NNW 20:28:49 10° N visible
25 Jan 3.4 18:23:00 10° WSW 18:28:17 39° NW 18:33:36 10° NNE visible
25 Jan 4.7 20:11:54 10° NW 20:14:16 12° NNW 20:16:38 10° N visible
26 Jan 3.4 18:10:42 10° WSW 18:15:59 39° NW 18:21:19 10° NNE visible
26 Jan 4.7 19:59:36 10° NW 20:01:58 12° NNW 20:04:20 10° N visible
27 Jan 3.4 17:58:23 10° WSW 18:03:41 39° NW 18:09:01 10° NNE visible
27 Jan 4.7 19:47:18 10° NW 19:49:40 12° NNW 19:52:01 10° N visible
28 Jan 3.4 17:46:06 10° WSW 17:51:22 39° NW 17:56:42 10° NNE visible
28 Jan 4.7 19:34:59 10° NW 19:37:22 12° NNW 19:39:44 10° N visible
29 Jan 3.4 17:33:47 10° WSW 17:39:04 39° NW 17:44:25 10° NNE visible
29 Jan 4.6 19:22:41 10° NW 19:25:03 12° NNW 19:27:26 10° N visible
30 Jan 4.6 19:10:23 10° NW 19:12:45 13° NNW 19:15:08 10° N visible
